Location: Newark
(43.5831°N, 21.3381°E)
Time: 02:15:44
(UTC+00:00)

Envisat - Pass Details

Date: 19 December 2019
Orbit: 764 x 766 km, 98.1° (Epoch: 23 January)

Event Time Altitude Azimuth Distance (km) Brightness Sun altitude
Rises 04:06:18 0° 30° (NNE) 3,241 6.5 -20.3°
Reaches altitude 10° 04:09:31 10° 52° (NE) 2,309 6.0 -19.7°
Maximum altitude 04:12:38 16° 90° (E) 1,906 6.0 -19.2°
Drops below altitude 10° 04:15:45 10° 128° (SE) 2,297 6.5 -18.6°
Sets 04:18:55 0° 149° (SSE) 3,217 6.9 -18.1°
